Oklahoma City, OK

6:26 AM CST on January 24, 2017 (GMT -0600)
Tinker Air Force Base

Weather History for KTIK - October, 2013

Change the Weather History Date:

Monday, October 21, 2013

  Actual Average Record
Temperature  
Mean Temperature 55 °F -  
Max Temperature 64 °F 67 °F 88 °F (2012)
Min Temperature 44 °F 49 °F 39 °F (1996)
Degree Days  
Heating Degree Days 10    
Growing Degree Days 5 (Base 50)    
Moisture  
Dew Point 42 °F    
Average Humidity 70    
Maximum Humidity 95    
Minimum Humidity 36    
Precipitation  
Precipitation 0.06 in - - ()
Sea Level Pressure  
Sea Level Pressure 30.04 in    
Wind  
Wind Speed 6 mph (East)    
Max Wind Speed 21 mph    
Max Gust Speed 26 mph    
Visibility 8 miles    
Events Rain , Thunderstorm    
Averages and records for this station are not official NWS values.
T = Trace of Precipitation, MM = Missing Value Source: NWS Daily Summary

Daily Weather History Graph

Daily Weather History Graph

Search for Another Location

Airport or City:

Trip Planner

Search our weather history database for the weather conditions in past years. The results will help you decide how hot, cold, wet, or windy it might be!

Date:

Astronomy

Oct. 21, 2013 Rise Set
Actual Time 7:41 AM CDT 6:46 PM CDT
Civil Twilight 7:15 AM CDT 7:12 PM CDT
Nautical Twilight 6:45 AM CDT 7:41 PM CDT
Astronomical Twilight 6:16 AM CDT 8:11 PM CDT
Moon 8:45 PM CDT (10/21) 10:12 AM CDT (10/21)
Length of Visible Light 11h 56m
Length of Day
11h 05m
Waning Gibbous, 92% of the Moon is Illuminated
Oct 21
Waning Gibbous
Oct 26
Last Quarter
Nov 3
New
Nov 9
First Quarter
Nov 17
Full

Hourly Weather History & Observations

Time (CDT) Temp. Windchill Dew Point Humidity Pressure Visibility Wind Dir Wind Speed Gust Speed Precip Events Conditions
12:58 AM 52.3 °F - 42.3 °F 69% 29.93 in 10.0 mi East 4.6 mph - N/A   Partly Cloudy
1:26 AM 53.6 °F - 42.8 °F 67% 29.94 in 10.0 mi East 3.5 mph - N/A Thunderstorm Thunderstorm
1:29 AM 53.6 °F - 44.6 °F 72% 29.95 in 10.0 mi ESE 2.3 mph - N/A Rain , Thunderstorm Light Thunderstorms and Rain
1:49 AM 51.8 °F - 46.4 °F 82% 29.96 in 10.0 mi SW 5.8 mph - N/A Rain , Thunderstorm Light Rain
1:58 AM 51.8 °F - 46.9 °F 83% 29.96 in 10.0 mi South 5.8 mph - 0.00 in Rain , Thunderstorm Light Rain
2:00 AM 51.8 °F - 46.4 °F 82% 29.94 in 10.0 mi SSE 5.8 mph - N/A Thunderstorm Mostly Cloudy
2:11 AM 51.8 °F - 48.2 °F 88% 29.94 in 10.0 mi SE 8.1 mph - N/A Rain Light Rain
2:36 AM 51.8 °F - 50.0 °F 94% 29.95 in 10.0 mi ESE 10.4 mph - N/A Thunderstorm Thunderstorm
2:40 AM 51.8 °F - 50.0 °F 94% 29.95 in 10.0 mi ESE 10.4 mph - N/A Rain , Thunderstorm Light Thunderstorms and Rain
2:58 AM 51.1 °F - 48.9 °F 92% 29.93 in 10.0 mi ESE 11.5 mph - 0.01 in Rain , Thunderstorm Light Thunderstorms and Rain
3:04 AM 51.8 °F - 48.2 °F 88% 29.94 in 10.0 mi Variable 3.5 mph - N/A Rain , Thunderstorm Light Rain
3:09 AM 51.8 °F - 48.2 °F 88% 29.96 in 10.0 mi Variable 4.6 mph - N/A   Light Drizzle
3:11 AM 51.8 °F - 48.2 °F 88% 29.95 in 10.0 mi SE 4.6 mph - N/A Thunderstorm Scattered Clouds
3:28 AM 51.8 °F - 48.2 °F 88% 29.93 in 10.0 mi ESE 10.4 mph - N/A Rain Light Rain
3:58 AM 51.3 °F - 49.8 °F 95% 29.94 in 10.0 mi East 4.6 mph - 0.01 in Rain Light Rain
3:59 AM 51.8 °F - 50.0 °F 94% 29.94 in 10.0 mi Calm Calm - N/A Rain , Thunderstorm Light Thunderstorms and Rain
4:01 AM 51.8 °F - 50.0 °F 94% 29.93 in 10.0 mi Variable 2.3 mph - N/A Rain Light Rain
4:02 AM 51.8 °F - 50.0 °F 94% 29.94 in 10.0 mi Variable 2.3 mph - N/A Rain , Thunderstorm Light Thunderstorms and Rain
4:13 AM 51.8 °F - 50.0 °F 94% 29.94 in 10.0 mi South 4.6 mph - N/A Rain Light Rain
4:35 AM 51.8 °F - 50.0 °F 94% 29.94 in 10.0 mi Variable 2.3 mph - N/A   Mostly Cloudy
4:58 AM 51.4 °F - 49.6 °F 94% 29.96 in 10.0 mi SW 2.3 mph - 0.04 in   Mostly Cloudy
5:58 AM 51.8 °F - 50.4 °F 95% 29.97 in 10.0 mi North 5.8 mph - N/A   Mostly Cloudy
6:58 AM 51.8 °F - 50.2 °F 94% 30.00 in 10.0 mi North 4.6 mph - N/A   Overcast
7:58 AM 51.1 °F - 47.7 °F 88% 30.03 in 10.0 mi NE 6.9 mph - N/A   Mostly Cloudy
8:58 AM 50.7 °F - 46.0 °F 84% 30.06 in 10.0 mi North 12.7 mph - N/A   Mostly Cloudy
9:58 AM 50.7 °F - 45.1 °F 81% 30.10 in 10.0 mi NNE 15.0 mph 24.2 mph N/A   Overcast
10:58 AM 53.8 °F - 43.9 °F 69% 30.12 in 10.0 mi NNE 20.7 mph 26.5 mph N/A   Scattered Clouds
11:58 AM 55.0 °F - 41.4 °F 60% 30.13 in 10.0 mi North 15.0 mph - N/A   Mostly Cloudy
12:58 PM 59.2 °F - 39.6 °F 48% 30.12 in 10.0 mi NNE 15.0 mph 23.0 mph N/A   Partly Cloudy
1:58 PM 62.4 °F - 39.0 °F 42% 30.09 in 10.0 mi NNE 12.7 mph - N/A   Clear
2:58 PM 63.1 °F - 39.0 °F 41% 30.07 in 10.0 mi NNE 11.5 mph 17.3 mph N/A   Clear
3:58 PM 64.8 °F - 37.0 °F 36% 30.08 in 10.0 mi North 12.7 mph - N/A   Mostly Cloudy
4:20 PM 62.6 °F - 37.4 °F 39% 30.08 in 10.0 mi NNE 12.7 mph - N/A   Mostly Cloudy
4:58 PM 62.4 °F - 36.0 °F 37% 30.09 in 10.0 mi NNE 10.4 mph - N/A   Clear
5:58 PM 59.9 °F - 34.7 °F 39% 30.11 in 7.0 mi NNE 9.2 mph - N/A   Clear
6:58 PM 54.1 °F - 36.5 °F 51% 30.12 in 7.0 mi North 6.9 mph - N/A   Clear
7:58 PM 51.6 °F - 36.3 °F 56% 30.13 in 7.0 mi North 3.5 mph - N/A   Clear
8:58 PM 48.2 °F - 37.4 °F 66% 30.16 in 7.0 mi East 3.5 mph - N/A   Clear
9:58 PM 50.9 °F - 34.9 °F 54% 30.14 in 10.0 mi ESE 4.6 mph - N/A   Clear
10:30 PM 51.8 °F - 33.8 °F 50% 30.12 in 4.0 mi ESE 2.3 mph - N/A   Haze
10:32 PM 51.8 °F - 33.8 °F 50% 30.12 in 4.0 mi SE 2.3 mph - N/A   Haze
10:33 PM 51.8 °F - 33.8 °F 50% 30.13 in 4.0 mi ESE 3.5 mph - N/A   Haze
10:34 PM 51.8 °F - 33.8 °F 50% 30.13 in 5.0 mi ESE 3.5 mph - N/A   Haze
10:36 PM 50.0 °F - 33.8 °F 54% 30.13 in 4.0 mi ESE 2.3 mph - N/A   Haze
10:38 PM 50.0 °F - 33.8 °F 54% 30.13 in 3.0 mi ESE 3.5 mph - N/A   Haze
10:40 PM 50.0 °F - 33.8 °F 54% 30.13 in 3.0 mi ESE 3.5 mph - N/A   Haze
10:41 PM 50.0 °F - 33.8 °F 54% 30.13 in 2.5 mi Calm Calm - N/A   Haze
10:42 PM 50.0 °F - 33.8 °F 54% 30.13 in 4.0 mi Calm Calm - N/A   Haze
10:58 PM 51.3 °F - 33.3 °F 50% 30.15 in 4.0 mi Calm Calm - N/A   Haze
11:13 PM 50.0 °F - 35.6 °F 58% 30.13 in 5.0 mi Calm Calm - N/A   Haze
11:21 PM 46.4 °F - 35.6 °F 66% 30.13 in 7.0 mi Calm Calm - N/A   Clear
11:29 PM 46.4 °F - 35.6 °F 66% 30.13 in 9.0 mi South 1.2 mph - N/A   Clear
11:58 PM 44.4 °F 41.2 °F 37.8 °F 77% 30.16 in 10.0 mi South 5.8 mph - N/A   Clear